| time (UTC) | temp F | wind direction | speed knots | gust knots | rain 1hr in | rain 24hr in | rain mn in | humidity % | barometer mb |
| 20260505013500 | 57 | 202 | 0.0 | 0.0 | 0.00 | 0.00 | 0.00 | 66 | 965.4 |
| 20260505013000 | 57 | 270 | 0.0 | 0.0 | 0.00 | 0.00 | 0.00 | 66 | 1023.1 |
| 20260505012500 | 57 | 315 | 0.0 | 0.0 | 0.00 | 0.00 | 0.00 | 66 | 984.1 |
| 20260505012000 | 57 | 45 | 0.0 | 0.0 | 0.00 | 0.00 | 0.00 | 66 | 1002.3 |
| 20260505011459 | 57 | 45 | 0.0 | 0.0 | 0.00 | 0.00 | 0.00 | 66 | 1052.2 |
| 20260505011000 | 57 | 45 | 0.0 | 0.0 | 0.00 | 0.00 | 0.00 | 66 | 1064.8 |
| 20260505010500 | 57 | 22 | 0.0 | 0.0 | 0.00 | 0.00 | 0.00 | 66 | 1055.0 |
| 20260505010001 | 57 | 0 | 0.0 | 0.0 | 0.00 | 0.00 | 0.00 | 67 | 1001.0 |
| 20260505005500 | 57 | 337 | 0.0 | 0.0 | 0.00 | 0.00 | 0.00 | 67 | 1094.7 |
| 20260505005000 | 57 | 337 | 0.0 | 0.0 | 0.00 | 0.00 | 0.00 | 67 | 969.9 |
| 20260505004500 | 57 | 292 | 0.0 | 0.0 | 0.00 | 0.00 | 0.00 | 67 | 997.0 |
| 20260505004159 | 57 | 292 | 0.0 | 0.0 | 0.00 | 0.00 | 0.00 | 68 | 956.0 |
| 20260505004000 | 57 | 337 | 0.0 | 0.9 | 0.00 | 0.00 | 0.00 | 68 | 1090.9 |
| 20260505003500 | 57 | 315 | 0.0 | 0.9 | 0.00 | 0.00 | 0.00 | 68 | 1039.7 |
| 20260505003000 | 57 | 292 | 0.0 | 0.0 | 0.00 | 0.00 | 0.00 | 68 | 972.5 |
| 20260505002500 | 57 | 270 | 0.0 | 0.9 | 0.00 | 0.00 | 0.00 | 68 | 1001.0 |
| 20260505002000 | 57 | 292 | 0.0 | 1.7 | 0.00 | 0.00 | 0.00 | 68 | 977.1 |
| 20260505001500 | 57 | 292 | 0.9 | 1.7 | 0.00 | 0.00 | 0.00 | 67 | 1055.4 |
| 20260505001000 | 57 | 292 | 1.7 | 1.7 | 0.00 | 0.00 | 0.00 | 64 | 1061.7 |
| 20260505000859 | 57 | 292 | 0.0 | 1.7 | 0.00 | 0.00 | 0.00 | 63 | 929.8 |
| 20260505000500 | 57 | 292 | 0.0 | 0.0 | 0.00 | 0.00 | 0.00 | 63 | 1004.1 |
| 20260505000000 | 57 | 315 | 0.0 | 0.0 | 0.00 | 0.00 | 0.00 | 63 | 971.7 |
| 20260504235500 | 58 | 315 | 0.0 | 0.0 | 0.00 | 0.00 | 0.00 | 62 | 1049.7 |
| 20260504235000 | 58 | 22 | 0.0 | 0.0 | 0.00 | 0.00 | 0.00 | 62 | 1010.4 |
| 20260504234500 | 58 | 45 | 0.0 | 0.0 | 0.00 | 0.00 | 0.00 | 62 | 1013.5 |
| 20260504234047 | 58 | 67 | 0.0 | 0.0 | 0.00 | 0.00 | 0.00 | 61 | 979.6 |
| 20260504234000 | 58 | 67 | 0.0 | 0.0 | 0.00 | 0.00 | 0.00 | 61 | 979.6 |
| 20260504233559 | 58 | 112 | 0.0 | 0.0 | 0.00 | 0.00 | 0.00 | 61 | 968.5 |
| 20260504233500 | 58 | 112 | 0.0 | 0.0 | 0.00 | 0.00 | 0.00 | 60 | 965.4 |
| 20260504233000 | 59 | 90 | 0.0 | 0.0 | 0.00 | 0.00 | 0.00 | 60 | 1010.3 |
| 20260504232558 | 59 | 90 | 0.0 | 0.0 | 0.00 | 0.00 | 0.00 | 59 | 893.2 |
| 20260504232500 | 59 | 90 | 0.0 | 0.0 | 0.00 | 0.00 | 0.00 | 59 | 893.2 |
| 20260504232000 | 59 | 90 | 0.0 | 0.9 | 0.00 | 0.00 | 0.00 | 59 | 1004.1 |
| 20260504231500 | 59 | 135 | 0.0 | 0.0 | 0.00 | 0.00 | 0.00 | 58 | 1058.5 |
| 20260504231000 | 60 | 90 | 0.0 | 0.0 | 0.00 | 0.00 | 0.00 | 58 | 1090.9 |
| 20260504230500 | 60 | 135 | 0.0 | 0.0 | 0.00 | 0.00 | 0.00 | 57 | 1004.1 |
| 20260504230259 | 60 | 135 | 0.0 | 0.0 | 0.00 | 0.00 | 0.00 | 57 | 974.2 |
| 20260504230000 | 60 | 135 | 0.0 | 0.0 | 0.00 | 0.00 | 0.00 | 56 | 1007.3 |
| 20260504225500 | 60 | 135 | 0.0 | 0.0 | 0.00 | 0.00 | 0.00 | 56 | 974.8 |
| 20260504225000 | 61 | 135 | 0.0 | 0.9 | 0.00 | 0.00 | 0.00 | 55 | 994.7 |
| 20260504224500 | 61 | 135 | 0.0 | 0.0 | 0.00 | 0.00 | 0.00 | 55 | 1087.8 |
| 20260504224000 | 61 | 90 | 0.0 | 0.0 | 0.00 | 0.00 | 0.00 | 54 | 1009.6 |
| 20260504223500 | 62 | 157 | 0.0 | 0.0 | 0.00 | 0.00 | 0.00 | 54 | 994.7 |
| 20260504222959 | 62 | 112 | 0.0 | 0.0 | 0.00 | 0.00 | 0.00 | 53 | 962.3 |
| 20260504222500 | 62 | 112 | 0.0 | 0.0 | 0.00 | 0.00 | 0.00 | 53 | 965.8 |
| 20260504222000 | 62 | 112 | 0.0 | 0.0 | 0.00 | 0.00 | 0.00 | 53 | 1084.6 |
| 20260504221500 | 62 | 135 | 0.0 | 0.9 | 0.00 | 0.00 | 0.00 | 52 | 997.9 |
| 20260504221000 | 62 | 157 | 0.9 | 0.9 | 0.00 | 0.00 | 0.00 | 52 | 1051.7 |
| 20260504220500 | 63 | 180 | 0.0 | 0.0 | 0.00 | 0.00 | 0.00 | 52 | 974.8 |
| 20260504220000 | 63 | 135 | 0.0 | 0.0 | 0.00 | 0.00 | 0.00 | 51 | 1109.7 |
| 20260504215659 | 63 | 157 | 0.0 | 0.0 | 0.00 | 0.00 | 0.00 | 51 | 981.0 |
| 20260504215500 | 63 | 157 | 0.0 | 0.0 | 0.00 | 0.00 | 0.00 | 51 | 1099.0 |
| 20260504215000 | 63 | 180 | 0.0 | 0.9 | 0.00 | 0.00 | 0.00 | 50 | 1046.0 |
| 20260504214500 | 64 | 157 | 0.9 | 1.7 | 0.00 | 0.00 | 0.00 | 50 | 1087.8 |
| 20260504214000 | 64 | 135 | 1.7 | 1.7 | 0.00 | 0.00 | 0.00 | 49 | 974.8 |
| 20260504213500 | 64 | 135 | 0.0 | 0.0 | 0.00 | 0.00 | 0.00 | 49 | 933.0 |
| 20260504213000 | 65 | 135 | 0.0 | 0.0 | 0.00 | 0.00 | 0.00 | 49 | 1010.4 |
| 20260504212500 | 65 | 292 | 0.0 | 0.0 | 0.00 | 0.00 | 0.00 | 48 | 942.9 |
| 20260504212359 | 65 | 292 | 0.0 | 0.9 | 0.00 | 0.00 | 0.00 | 48 | 998.8 |
| 20260504212000 | 65 | 315 | 0.0 | 1.7 | 0.00 | 0.00 | 0.00 | 48 | 983.4 |
| 20260504211500 | 66 | 292 | 0.9 | 1.7 | 0.00 | 0.00 | 0.00 | 48 | 1063.0 |
| 20260504211001 | 66 | 315 | 0.9 | 1.7 | 0.00 | 0.00 | 0.00 | 48 | 933.2 |
| 20260504210501 | 66 | 292 | 1.7 | 2.6 | 0.00 | 0.00 | 0.00 | 48 | 968.9 |
| 20260504210000 | 66 | 315 | 1.7 | 2.6 | 0.00 | 0.00 | 0.00 | 47 | 936.1 |
| 20260504205500 | 66 | 315 | 1.7 | 2.6 | 0.00 | 0.00 | 0.00 | 47 | 1048.3 |
| 20260504205059 | 66 | 337 | 1.7 | 2.6 | 0.00 | 0.00 | 0.00 | 47 | 1042.8 |
| 20260504205000 | -21 | 337 | 1.7 | 2.6 | 0.00 | 0.00 | 0.00 | 47 | 914.2 |
| 20260504204500 | 66 | 337 | 1.7 | 3.5 | 0.00 | 0.00 | 0.00 | 47 | 972.9 |
| 20260504204000 | 67 | 337 | 1.7 | 4.3 | 0.00 | 0.00 | 0.00 | 47 | 1046.9 |
| 20260504203500 | 67 | 292 | 2.6 | 3.5 | 0.00 | 0.00 | 0.00 | 46 | 974.6 |
| 20260504203000 | 67 | 292 | 2.6 | 3.5 | 0.00 | 0.00 | 0.00 | 46 | 1065.6 |
| 20260504202500 | 67 | 315 | 2.6 | 2.6 | 0.00 | 0.00 | 0.00 | 45 | 1058.6 |
| 20260504202001 | 67 | 292 | 1.7 | 2.6 | 0.00 | 0.00 | 0.00 | 45 | 1045.9 |
| 20260504201800 | 67 | 315 | 1.7 | 2.6 | 0.00 | 0.00 | 0.00 | 45 | 1097.2 |
| 20260504201500 | 67 | 292 | 2.6 | 3.5 | 0.00 | 0.00 | 0.00 | 45 | 1094.0 |
| 20260504201000 | 67 | 292 | 2.6 | 3.5 | 0.00 | 0.00 | 0.00 | 45 | 966.5 |
| 20260504200500 | 67 | 315 | 3.5 | 4.3 | 0.00 | 0.00 | 0.00 | 44 | 969.1 |
| 20260504200000 | 68 | 315 | 3.5 | 3.5 | 0.00 | 0.00 | 0.00 | 44 | 1002.5 |
| 20260504195500 | 68 | 270 | 3.5 | 4.3 | 0.00 | 0.00 | 0.00 | 43 | 1087.8 |
| 20260504195001 | 68 | 292 | 3.5 | 3.5 | 0.00 | 0.00 | 0.00 | 43 | 1045.9 |
| 20260504194500 | 68 | 292 | 0.9 | 5.2 | 0.00 | 0.00 | 0.00 | 42 | 1010.4 |
| 20260504194000 | 69 | 270 | 0.0 | 5.2 | 0.00 | 0.00 | 0.00 | 41 | 1008.8 |
| 20260504193501 | 69 | 270 | 3.5 | 7.0 | 0.00 | 0.00 | 0.00 | 40 | 911.0 |
| 20260504193001 | 69 | 202 | 2.6 | 4.3 | 0.00 | 0.00 | 0.00 | 39 | 1013.5 |
| 20260504192501 | 70 | 180 | 1.7 | 3.5 | 0.00 | 0.00 | 0.00 | 38 | 1052.2 |
| 20260504192001 | 70 | 202 | 3.5 | 4.3 | 0.00 | 0.00 | 0.00 | 38 | 1016.7 |
| 20260504191509 | 70 | 202 | 2.6 | 5.2 | 0.00 | 0.00 | 0.00 | 37 | 1007.3 |
| 20260504191501 | 70 | 202 | 2.6 | 5.2 | 0.00 | 0.00 | 0.00 | 37 | 1007.3 |
| 20260504191200 | 70 | 202 | 3.5 | 6.1 | 0.00 | 0.00 | 0.00 | 37 | 926.7 |
| 20260504191001 | 70 | 157 | 3.5 | 7.0 | 0.00 | 0.00 | 0.00 | 37 | 1090.9 |
| 20260504190510 | 70 | 180 | 3.5 | 5.2 | 0.00 | 0.00 | 0.00 | 37 | 1052.2 |
| 20260504190501 | 70 | 180 | 3.5 | 5.2 | 0.00 | 0.00 | 0.00 | 37 | 1052.2 |
| 20260504190001 | 70 | 202 | 4.3 | 5.2 | 0.00 | 0.00 | 0.00 | 36 | 1052.2 |
| 20260504185501 | 71 | 180 | 1.7 | 5.2 | 0.00 | 0.00 | 0.00 | 36 | 920.4 |
| 20260504185001 | 71 | 180 | 2.6 | 5.2 | 0.00 | 0.00 | 0.00 | 36 | 962.3 |
| 20260504184501 | 71 | 202 | 3.5 | 5.2 | 0.00 | 0.00 | 0.00 | 35 | 1052.2 |
| 20260504184001 | 71 | 202 | 2.6 | 2.6 | 0.00 | 0.00 | 0.00 | 35 | 974.6 |
| 20260504183900 | 71 | 202 | 0.9 | 2.6 | 0.00 | 0.00 | 0.00 | 35 | 1039.6 |
| 20260504183501 | 72 | 225 | 2.6 | 2.6 | 0.00 | 0.00 | 0.00 | 35 | 974.8 |
| 20260504183001 | 72 | 270 | 0.9 | 0.9 | 0.00 | 0.00 | 0.00 | 34 | 952.9 |
| 20260504182501 | 73 | 270 | 0.0 | 1.7 | 0.00 | 0.00 | 0.00 | 34 | 1046.0 |
| 20260504182007 | 73 | 270 | 0.0 | 3.5 | 0.00 | 0.00 | 0.00 | 33 | |
| 20260504182001 | 73 | 270 | 0.0 | 3.5 | 0.00 | 0.00 | 0.00 | 33 | 1001.0 |
| 20260504181501 | 73 | 180 | 2.6 | 3.5 | 0.00 | 0.00 | 0.00 | 32 | 1081.5 |
| 20260504181001 | 74 | 180 | 1.7 | 3.5 | 0.00 | 0.00 | 0.00 | 32 | 1055.4 |
| 20260504180600 | 74 | 180 | 2.6 | 3.5 | 0.00 | 0.00 | 0.00 | 32 | 973.4 |
| 20260504180501 | 74 | 202 | 3.5 | 3.5 | 0.00 | 0.00 | 0.00 | 32 | 881.8 |
| 20260504180001 | 75 | 180 | 3.5 | 5.2 | 0.00 | 0.00 | 0.00 | 31 | 971.7 |
| 20260504175501 | 75 | 202 | 3.5 | 6.1 | 0.00 | 0.00 | 0.00 | 31 | 1100.3 |
| 20260504175001 | 76 | 202 | 5.2 | 5.2 | 0.00 | 0.00 | 0.00 | 30 | 932.9 |
| 20260504174501 | 77 | 202 | 2.6 | 3.5 | 0.00 | 0.00 | 0.00 | 29 | 1007.3 |
| 20260504174001 | 77 | 202 | 3.5 | 6.1 | 0.00 | 0.00 | 0.00 | 29 | 1042.8 |
| 20260504173501 | 78 | 202 | 2.6 | 4.3 | 0.00 | 0.00 | 0.00 | 29 | 977.9 |
| 20260504173300 | 78 | 202 | 1.7 | 5.2 | 0.00 | 0.00 | 0.00 | 29 | 1001.0 |
| 20260504173001 | 78 | 202 | 4.3 | 5.2 | 0.00 | 0.00 | 0.00 | 29 | 968.6 |
| 20260504172501 | 79 | 202 | 5.2 | 7.8 | 0.00 | 0.00 | 0.00 | 28 | 1013.5 |
| 20260504172001 | 79 | 202 | 3.5 | 7.8 | 0.00 | 0.00 | 0.00 | 28 | 1024.0 |
| 20260504171501 | 79 | 225 | 6.1 | 8.7 | 0.00 | 0.00 | 0.00 | 28 | 1013.5 |
| 20260504171001 | 79 | 225 | 3.5 | 7.8 | 0.00 | 0.00 | 0.00 | 28 | 968.5 |
| 20260504170501 | 80 | 225 | 6.1 | 11.3 | 0.00 | 0.00 | 0.00 | 27 | 1058.5 |
| 20260504151001 | 86 | 180 | 5.2 | 12.2 | 0.00 | 0.00 | 0.00 | 25 | 1058.5 |
| 20260504150501 | 86 | 180 | 1.7 | 10.4 | 0.00 | 0.00 | 0.00 | 25 | 960.9 |
| 20260504141001 | 86 | 292 | 4.3 | 12.2 | 0.00 | 0.00 | 0.00 | 23 | 1004.1 |
| 20260504140501 | 87 | 202 | 7.8 | 14.8 | 0.00 | 0.00 | 0.00 | 23 | 1010.4 |
| 20260504130501 | 86 | 270 | 5.2 | 14.8 | 0.00 | 0.00 | 0.00 | 23 | 965.4 |
| 20260504120300 | 89 | 225 | 4.3 | 12.2 | 0.00 | 0.00 | 0.00 | 22 | 1010.4 |
| 20260504110501 | 86 | 247 | 7.8 | 14.8 | 0.00 | 0.00 | 0.00 | 23 | 1079.3 |
| 20260504100502 | 84 | 225 | 16.5 | 16.5 | 0.00 | 0.00 | 0.00 | 26 | 1048.5 |
| 20260504082002 | 88 | 202 | 6.1 | 10.4 | 0.00 | 0.00 | 0.00 | 22 | 1058.0 |
| 20260504081502 | 88 | 202 | 10.4 | 12.2 | 0.00 | 0.00 | 0.00 | 22 | 1095.9 |
| 20260504081201 | 88 | 225 | 8.7 | 13.0 | 0.00 | 0.00 | 0.00 | 22 | 1008.2 |
| 20260504081002 | 89 | 247 | 7.8 | 13.0 | 0.00 | 0.00 | 0.00 | 22 | 1000.3 |
| 20260504080502 | 89 | 225 | 10.4 | 10.4 | 0.00 | 0.00 | 0.00 | 22 | 1085.0 |
| 20260504050502 | 84 | 202 | 4.3 | 14.8 | 0.00 | 0.00 | 0.00 | 25 | 962.0 |
| 20260504050002 | 84 | 135 | 7.0 | 15.6 | 0.00 | 0.00 | 0.00 | 26 | 1050.7 |
| 20260504045502 | 84 | 225 | 1.7 | 10.4 | 0.00 | 0.00 | 0.00 | 26 | 1043.1 |
| 20260504045401 | 84 | 180 | 6.1 | 10.4 | 0.00 | 0.00 | 0.00 | 26 | 1083.3 |
| 20260504045002 | 83 | 202 | 4.3 | 7.0 | 0.00 | 0.00 | 0.00 | 27 | 1033.4 |
| 20260504044502 | 82 | 202 | 5.2 | 8.7 | 0.00 | 0.00 | 0.00 | 28 | 1055.3 |
| 20260504044002 | 81 | 180 | 2.6 | 8.7 | 0.00 | 0.00 | 0.00 | 29 | 1068.1 |
| 20260504043502 | 80 | 180 | 3.5 | 6.1 | 0.00 | 0.00 | 0.00 | 30 | 1001.0 |
| 20260504043219 | 78 | 180 | 3.5 | 10.4 | 0.00 | 0.00 | 0.00 | 31 | 996.6 |
| 20260504043202 | 77 | 180 | 7.8 | 8.7 | 0.00 | 0.00 | 0.00 | 32 | 1081.5 |
| 20260504043002 | 78 | 180 | 3.5 | 10.4 | 0.00 | 0.00 | 0.00 | 31 | 996.6 |
| 20260504042742 | 76 | 225 | 3.5 | 7.8 | 0.00 | 0.00 | 0.00 | 33 | 1009.3 |
| 20260504042740 | 75 | 202 | 11.3 | 11.3 | 0.00 | 0.00 | 0.00 | 34 | 1043.8 |
| 20260504042502 | 77 | 180 | 7.8 | 8.7 | 0.00 | 0.00 | 0.00 | 32 | 1081.5 |
| 20260504042101 | 76 | 202 | 1.7 | 7.8 | 0.00 | 0.00 | 0.00 | 32 | 1087.7 |
| 20260504042009 | 76 | 225 | 3.5 | 7.8 | 0.00 | 0.00 | 0.00 | 33 | 1009.3 |
| 20260504042002 | 76 | 225 | 3.5 | 7.8 | 0.00 | 0.00 | 0.00 | 33 | 1009.3 |
| 20260504041502 | 75 | 202 | 11.3 | 11.3 | 0.00 | 0.00 | 0.00 | 34 | 1043.8 |
| 20260504041002 | 73 | 202 | 2.6 | 7.0 | 0.00 | 0.00 | 0.00 | 35 | 1036.6 |
| 20260504040502 | 71 | 202 | 4.3 | 4.3 | 0.00 | 0.00 | 0.00 | 38 | 1049.1 |
| 20260504040002 | 68 | 202 | 2.6 | 6.1 | 0.00 | 0.00 | 0.00 | 41 | 1097.2 |
| 20260504035502 | 66 | 180 | 1.7 | 5.2 | 0.00 | 0.00 | 0.00 | 44 | 1078.4 |
| 20260504035002 | 63 | 180 | 2.6 | 5.2 | 0.00 | 0.00 | 0.00 | 47 | 1045.9 |
| 20260504034801 | 61 | 157 | 0.9 | 5.2 | 0.00 | 0.00 | 0.00 | 48 | 1010.3 |
| 20260504034502 | 60 | 135 | 2.6 | 6.1 | 0.00 | 0.00 | 0.00 | 49 | 1087.8 |
| 20260504034002 | 58 | 180 | 3.5 | 3.5 | 0.00 | 0.00 | 0.00 | 50 | 1036.5 |
| 20260504033502 | 56 | 112 | 2.6 | 5.2 | 0.00 | 0.00 | 0.00 | 50 | 1039.7 |
| 20260504033002 | 56 | 270 | 1.7 | 7.0 | 0.00 | 0.00 | 0.00 | 50 | 1049.1 |
| 20260504032502 | 56 | 202 | 5.2 | 7.0 | 0.00 | 0.00 | 0.00 | 50 | 1094.5 |
| 20260504032002 | 55 | 202 | 2.6 | 6.1 | 0.00 | 0.00 | 0.00 | 51 | 1007.3 |
| 20260504031501 | 55 | 180 | 3.5 | 6.1 | 0.00 | 0.00 | 0.00 | 51 | 1010.4 |
| 20260504031002 | 55 | 157 | 5.2 | 6.1 | 0.00 | 0.00 | 0.00 | 51 | 1004.1 |
| 20260504030502 | 55 | 157 | 4.3 | 5.2 | 0.00 | 0.00 | 0.00 | 51 | 1005.8 |
| 20260504030002 | 55 | 202 | 2.6 | 5.2 | 0.00 | 0.00 | 0.00 | 51 | 964.4 |
| 20260504025502 | 55 | 180 | 2.6 | 5.2 | 0.00 | 0.00 | 0.00 | 51 | 1058.5 |
| 20260504025002 | 55 | 157 | 2.6 | 7.8 | 0.00 | 0.00 | 0.00 | 51 | 993.2 |
| 20260504024502 | 55 | 180 | 1.7 | 6.1 | 0.00 | 0.00 | 0.00 | 51 | 1043.4 |
| 20260504024201 | 55 | 180 | 4.3 | 5.2 | 0.00 | 0.00 | 0.00 | 51 | 991.6 |
| 20260504024002 | 55 | 180 | 1.7 | 5.2 | 0.00 | 0.00 | 0.00 | 51 | 1084.7 |
| 20260504023502 | 55 | 157 | 3.5 | 5.2 | 0.00 | 0.00 | 0.00 | 51 | 1036.5 |
| 20260504023002 | 56 | 180 | 1.7 | 6.1 | 0.00 | 0.00 | 0.00 | 50 | 1055.3 |
| 20260504022502 | 56 | 157 | 1.7 | 3.5 | 0.00 | 0.00 | 0.00 | 50 | 1042.8 |
| 20260504022002 | 56 | 202 | 3.5 | 4.3 | 0.00 | 0.00 | 0.00 | 50 | 1016.6 |
| 20260504021502 | 56 | 180 | 3.5 | 6.1 | 0.00 | 0.00 | 0.00 | 50 | 1042.8 |
| 20260504021009 | 56 | 180 | 1.7 | 3.5 | 0.00 | 0.00 | 0.00 | 49 | 1055.4 |
| 20260504021002 | 56 | 180 | 1.7 | 3.5 | 0.00 | 0.00 | 0.00 | 49 | 1055.4 |
| 20260504020901 | 57 | 202 | 1.7 | 3.5 | 0.00 | 0.00 | 0.00 | 49 | 1097.2 |
| 20260504020502 | 57 | 180 | 1.7 | 3.5 | 0.00 | 0.00 | 0.00 | 49 | 1045.0 |
| 20260504020002 | 57 | 135 | 1.7 | 6.1 | 0.00 | 0.00 | 0.00 | 49 | 1083.3 |
| 20260504015502 | 57 | 135 | 4.3 | 6.1 | 0.00 | 0.00 | 0.00 | 49 | 1033.4 |
| 20260504015002 | 57 | 180 | 1.7 | 6.1 | 0.00 | 0.00 | 0.00 | 49 | 1027.1 |
| 20260504014512 | 57 | 202 | 6.1 | 6.1 | 0.00 | 0.00 | 0.00 | 49 | |
| 20260504014502 | 57 | 202 | 6.1 | 6.1 | 0.00 | 0.00 | 0.00 | 49 | 1046.0 |
| 20260504014002 | 57 | 157 | 2.6 | 5.2 | 0.00 | 0.00 | 0.00 | 48 | 1039.7 |
| 20260504013742 | 57 | 202 | 5.2 | 5.2 | 0.00 | 0.00 | 0.00 | 48 | 1011.8 |
| 20260504013601 | 57 | 157 | 3.5 | 5.2 | 0.00 | 0.00 | 0.00 | 48 | 1082.9 |